Location: R�serve Fauniques des Laurentides
(47.3100°N, 71.1900°W)
Time: 03:27:34
(UTC-04:00)

Amateur Radio Satellites - All Passes

Search period start: 24 October 2017 02:57
Search period end: 25 October 2017 02:57
Location: R�serve Fauniques des Laurentides, 47.3100°N, 71.1900°W

Satellite Date Start Highest point End Downlink Frequencies (MHz)
Time Altitude Azimuth
AO-7 24 Oct 02:57:50 03:03:51 21° 90° (E) 03:09:49 .
ITUPSAT 1 24 Oct 03:14:34 03:19:24 84° 255° (WSW) 03:24:15 437.325
BEESAT 24 Oct 03:27:25 03:32:09 63° 258° (WSW) 03:36:57 436.000
ITAMSAT 1 24 Oct 03:28:05 03:31:58 20° 91° (E) 03:35:49 435.822/435.867
RS-15 24 Oct 03:38:16 03:49:39 40° 339° (NNW) 04:00:47 29.354- 29.394
MOZHAYETS 4 24 Oct 03:44:32 03:48:52 39° 263° (W) 03:53:14
Gurwin Techsat 1B 24 Oct 03:50:11 03:54:53 33° 296° (WNW) 03:59:35 435.225
O/OREOS (USA 219) 24 Oct 04:05:05 04:07:57 16° 45° (NE) 04:10:47 437.305
CUBESAT XI-V 24 Oct 04:06:09 04:10:46 85° 73° (ENE) 04:15:24 437.345
M-CUBED/EXP-1 PRIME 24 Oct 04:09:22 04:11:45 17° 301° (WNW) 04:14:13 437.505
Oscar 19 24 Oct 04:27:16 04:29:29 13° 306° (NW) 04:31:41 437.125/150
NO-84 24 Oct 04:32:50 04:36:47 34° 344° (NNW) 04:40:36 435.350 FM
KKS-1 24 Oct 04:41:23 04:45:45 61° 72° (ENE) 04:50:11 437.445
AO-7 24 Oct 04:49:20 04:57:42 89° 112° (ESE) 05:06:02 .
ITUPSAT 1 24 Oct 04:56:48 04:57:58 11° 274° (W) 04:59:07 437.325
STARS 24 Oct 05:02:32 05:06:41 43° 69° (ENE) 05:10:53 437.465
ITAMSAT 1 24 Oct 05:06:40 05:11:50 61° 290° (WNW) 05:16:59 435.822/435.867
O/OREOS (USA 219) 24 Oct 05:43:23 05:48:01 85° 246° (WSW) 05:52:37 437.305
CUBESAT XI-V 24 Oct 05:47:04 05:48:45 12° 273° (W) 05:50:27 437.345
SO-50 24 Oct 05:49:19 05:53:26 37° 119° (ESE) 05:57:36 436.795
DOVE 4 24 Oct 05:49:30 05:54:31 64° 101° (E) 05:59:44 437.250
RS-15 24 Oct 05:55:17 06:06:16 36° 13° (NNE) 06:16:49 29.354- 29.394
XW-2C 24 Oct 06:02:44 06:05:23 18° 92° (E) 06:08:01 145.795 - 145.815
CUTE-I 24 Oct 06:06:34 06:10:37 21° 91° (E) 06:14:39 437.470
HO-68 24 Oct 06:09:52 06:12:10 12° 83° (E) 06:14:27 435.675
NO-84 24 Oct 06:11:21 06:15:01 28° 5° (N) 06:18:31 435.350 FM
KKS-1 24 Oct 06:20:02 06:22:43 16° 270° (W) 06:25:26 437.445
KAITUO 1B 24 Oct 06:34:08 06:37:24 29° 96° (E) 06:40:40 145.475/437.950
STRAND 1 24 Oct 06:37:20 06:42:09 43° 67° (ENE) 06:47:01 437.568
STARS 24 Oct 06:39:47 06:43:12 22° 267° (W) 06:46:39 437.465
NUDT-PHONESAT 24 Oct 06:41:08 06:44:29 33° 97° (E) 06:47:50 437.300
AO-7 24 Oct 06:43:01 06:49:32 27° 312° (NW) 06:56:04 .
XW-2F 24 Oct 06:43:04 06:46:42 48° 99° (E) 06:50:17 145.980 - 146.000
ITAMSAT 1 24 Oct 06:48:56 06:50:15 11° 309° (NW) 06:51:37 435.822/435.867
CUTE 1.7 + AOD 2 24 Oct 06:49:48 06:52:19 15° 90° (E) 06:54:49 437.475
LilacSat-2 24 Oct 06:57:19 07:01:06 83° 100° (E) 07:04:52 437.200
CUBEBUG 2 24 Oct 06:58:42 07:00:39 12° 86° (E) 07:02:34 437.445
XW-2D 24 Oct 06:58:51 07:02:37 83° 103° (ESE) 07:06:22 145.860 - 145.880
PCSat 24 Oct 07:05:03 07:09:47 32° 111° (ESE) 07:14:33 145.827
XW-2B 24 Oct 07:12:30 07:16:14 71° 285° (WNW) 07:19:57 145.730 - 145.750
YUBILEINY 24 Oct 07:16:07 07:20:13 14° 71° (ENE) 07:24:19 435.215
O/OREOS (USA 219) 24 Oct 07:25:57 07:26:37 10° 264° (W) 07:27:16 437.305
UWE-3 24 Oct 07:27:28 07:29:47 14° 88° (E) 07:32:03 435.000/436.395/437.385
DOVE 4 24 Oct 07:28:05 07:31:47 21° 298° (WNW) 07:35:35 437.250
SO-50 24 Oct 07:29:47 07:33:55 35° 318° (NW) 07:38:05 436.795
XW-2C 24 Oct 07:36:14 07:39:43 37° 290° (WNW) 07:43:10 145.795 - 145.815
CUTE-I 24 Oct 07:45:46 07:51:05 61° 289° (WNW) 07:56:22 437.470
NO-84 24 Oct 07:49:01 07:53:03 56° 27° (NNE) 07:56:48 435.350 FM
HO-68 24 Oct 07:54:10 08:01:20 63° 103° (ESE) 08:08:28 435.675
FO-29 24 Oct 08:00:02 08:05:04 43° 65° (ENE) 08:10:37 435.910
TIGRISAT 24 Oct 08:04:20 08:05:56 12° 56° (NE) 08:07:33 435.000
AO-73 24 Oct 08:06:20 08:09:04 16° 90° (E) 08:11:44 145.935
KAITUO 1B 24 Oct 08:08:21 08:11:16 22° 294° (WNW) 08:14:11 145.475/437.950
RS-15 24 Oct 08:09:27 08:21:31 66° 44° (NE) 08:32:54 29.354- 29.394
NUDT-PHONESAT 24 Oct 08:15:27 08:18:08 20° 295° (WNW) 08:20:50 437.300
STRAND 1 24 Oct 08:17:04 08:21:28 28° 266° (W) 08:25:55 437.568
XW-2F 24 Oct 08:18:14 08:20:27 15° 297° (WNW) 08:22:39 145.980 - 146.000
SEEDS 24 Oct 08:22:56 08:27:07 89° 103° (ESE) 08:31:18 437.485
CUTE 1.7 + AOD 2 24 Oct 08:24:22 08:28:30 56° 288° (WNW) 08:32:36 437.475
nSIGHT-1 24 Oct 08:24:54 08:27:20 20° 139° (SE) 08:29:47 .
ZACube-1 24 Oct 08:30:15 08:34:10 31° 95° (E) 08:37:57 437.345
CUBEBUG 2 24 Oct 08:33:15 08:37:54 80° 284° (WNW) 08:42:22 437.445
AAUSAT CUBESAT 2 24 Oct 08:33:40 08:37:43 52° 100° (E) 08:41:45 437.432
LilacSat-2 24 Oct 08:34:32 08:34:46 10° 301° (WNW) 08:35:00 437.200
XW-2A 24 Oct 08:40:51 08:44:13 89° 284° (WNW) 08:47:32 145.665 - 145.685
PCSat 24 Oct 08:47:47 08:53:01 48° 311° (NW) 08:58:17 145.827
Oscar 11 24 Oct 08:59:08 09:03:10 38° 97° (E) 09:07:11 .
UWE-3 24 Oct 09:02:16 09:06:46 68° 286° (WNW) 09:11:04 435.000/436.395/437.385
YUBILEINY 24 Oct 09:06:39 09:15:13 67° 93° (E) 09:23:52 435.215
ISS 24 Oct 09:08:06 09:11:09 40° 146° (SE) 09:14:15 437.550
PRISM 24 Oct 09:10:06 09:13:05 20° 63° (ENE) 09:16:05 437.425
SO-50 24 Oct 09:14:02 09:15:42 12° 341° (NNW) 09:17:24 436.795
DELFI C3 24 Oct 09:22:13 09:24:36 15° 90° (E) 09:26:59 145.870
UNISAT 6 24 Oct 09:23:38 09:28:15 62° 72° (ENE) 09:32:55 437.425
NO-84 24 Oct 09:26:49 09:30:15 29° 227° (SW) 09:33:26 435.350 FM
CUTE-I 24 Oct 09:28:31 09:30:04 11° 309° (NW) 09:31:37 437.470
TIGRISAT 24 Oct 09:37:07 09:41:48 76° 73° (ENE) 09:46:31 435.000
AO-73 24 Oct 09:41:25 09:45:40 54° 288° (WNW) 09:49:48 145.935
HO-68 24 Oct 09:42:28 09:48:39 32° 303° (WNW) 09:54:49 435.675
FO-29 24 Oct 09:45:44 09:50:24 30° 267° (W) 09:55:29 435.910
nSIGHT-1 24 Oct 10:00:07 10:03:19 77° 337° (NNW) 10:06:31 .
SEEDS 24 Oct 10:00:51 10:02:08 11° 302° (WNW) 10:03:26 437.485
ZACube-1 24 Oct 10:06:37 10:10:22 28° 294° (WNW) 10:14:01 437.345
AAUSAT CUBESAT 2 24 Oct 10:10:04 10:12:47 17° 297° (WNW) 10:15:30 437.432
CUBEBUG 2 24 Oct 10:12:08 10:13:40 12° 304° (NW) 10:15:11 437.445
RS-15 24 Oct 10:22:34 10:33:32 46° 250° (WSW) 10:43:58 29.354- 29.394
EO-88 24 Oct 10:34:17 10:37:49 48° 99° (E) 10:41:20 145.990 - 145.960
PCSat 24 Oct 10:34:47 10:37:47 15° 334° (NNW) 10:40:47 145.827
Oscar 11 24 Oct 10:35:41 10:39:07 24° 295° (WNW) 10:42:34 .
BEESAT 3 24 Oct 10:40:49 10:43:59 23° 115° (ESE) 10:47:11 437.485
PRISM 24 Oct 10:44:14 10:48:05 42° 261° (W) 10:51:59 437.425
ISS 24 Oct 10:44:25 10:47:36 50° 344° (NNW) 10:50:49 437.550
Max Valier Satellite 24 Oct 10:54:18 10:57:58 68° 285° (WNW) 11:01:35 145.860
DELFI C3 24 Oct 10:55:47 10:59:38 50° 288° (WNW) 11:03:29 145.870
UNISAT 6 24 Oct 11:02:17 11:05:22 17° 270° (W) 11:08:28 437.425
EO-79 24 Oct 11:02:25 11:06:13 32° 67° (ENE) 11:10:03 145.935-145.965
YUBILEINY 24 Oct 11:05:11 11:12:44 32° 296° (WNW) 11:20:23 435.215
POLYITAN 1 24 Oct 11:08:17 11:12:13 36° 69° (ENE) 11:16:11 437.675
LO-87 24 Oct 11:10:08 11:12:41 18° 92° (E) 11:15:12 145.935 - 145.965
AIST 2D 24 Oct 11:11:19 11:14:49 81° 256° (WSW) 11:18:20 435.315
TIGRISAT 24 Oct 11:16:36 11:19:01 14° 272° (W) 11:21:28 435.000
NANOSAT C BR1 24 Oct 11:27:13 11:31:20 50° 72° (ENE) 11:35:30 145.865
BUGSAT 1 24 Oct 11:27:23 11:29:41 14° 60° (ENE) 11:31:59 437.445
QB50P2 24 Oct 11:28:35 11:32:49 64° 72° (ENE) 11:37:04 145.880/145.840
DUCHIFAT 1 24 Oct 11:35:21 11:39:29 54° 72° (ENE) 11:43:40 145.980
nSIGHT-1 24 Oct 11:36:53 11:39:53 36° 356° (N) 11:42:53 .
ESTCUBE 1 24 Oct 11:41:03 11:45:00 30° 95° (E) 11:48:56 437.505/2401.250
Gurwin Techsat 1B 24 Oct 11:57:24 12:00:19 15° 55° (NE) 12:03:15 435.225
EO-88 24 Oct 12:09:02 12:11:05 15° 297° (WNW) 12:13:09 145.990 - 145.960
BEESAT 2 24 Oct 12:11:15 12:15:11 56° 122° (ESE) 12:19:11 435.950
AO-7 24 Oct 12:13:33 12:16:53 13° 33° (NNE) 12:20:13 .
BEESAT 3 24 Oct 12:17:26 12:21:18 45° 313° (NW) 12:25:11 437.485
ISS 24 Oct 12:21:24 12:24:28 37° 5° (N) 12:27:33 437.550
Oscar 19 24 Oct 12:27:21 12:31:55 33° 65° (ENE) 12:36:28 437.125/150
SO-50 24 Oct 12:37:16 12:40:36 19° 31° (NNE) 12:43:57 436.795
EO-79 24 Oct 12:38:19 12:41:59 27° 265° (W) 12:45:41 145.935-145.965
LO-87 24 Oct 12:42:52 12:46:13 35° 290° (WNW) 12:49:32 145.935 - 145.965
POLYITAN 1 24 Oct 12:44:34 12:48:05 24° 266° (W) 12:51:37 437.675
VELOX 1 24 Oct 12:47:17 12:51:01 26° 94° (E) 12:54:44 145.980
AO-85 24 Oct 12:50:48 12:54:41 85° 125° (SE) 12:58:44 145.980
BUGSAT 1 24 Oct 13:00:17 13:04:29 71° 258° (WSW) 13:08:45 437.445
SPROUT 24 Oct 13:03:18 13:07:31 54° 100° (E) 13:11:43 437.525
NANOSAT C BR1 24 Oct 13:04:28 13:07:20 18° 269° (W) 13:10:14 145.865
QB50P2 24 Oct 13:06:45 13:09:01 14° 271° (W) 13:11:18 145.880/145.840
DUCHIFAT 1 24 Oct 13:12:46 13:15:28 16° 269° (W) 13:18:12 145.980
nSIGHT-1 24 Oct 13:13:23 13:16:33 52° 17° (NNE) 13:19:41 .
ESTCUBE 1 24 Oct 13:17:48 13:21:48 32° 293° (WNW) 13:25:47 437.505/2401.250
M-CUBED/EXP-1 PRIME 24 Oct 13:23:09 13:26:27 73° 252° (WSW) 13:29:43 437.505
Gurwin Techsat 1B 24 Oct 13:34:10 13:39:28 84° 75° (ENE) 13:44:50 435.225
DX 1 24 Oct 13:39:09 13:42:37 23° 94° (E) 13:46:05 434.975-435.025
BEESAT 2 24 Oct 13:49:58 13:53:13 23° 322° (NW) 13:56:31 435.950
50 SAT 24 Oct 13:51:15 13:54:15 31° 98° (E) 13:57:14 437.505
UKube-1 24 Oct 13:53:39 13:56:55 20° 93° (E) 14:00:09 .
ISS 24 Oct 13:57:56 14:01:13 84° 24° (NNE) 14:04:29 437.550
BEESAT 3 24 Oct 13:58:26 13:59:51 11° 335° (NNW) 14:01:15 437.485
AO-7 24 Oct 13:59:54 14:07:30 42° 57° (ENE) 14:15:07 .
Oscar 19 24 Oct 14:06:23 14:11:09 37° 263° (W) 14:15:57 437.125/150
PCSat 24 Oct 14:06:27 14:09:42 16° 28° (NNE) 14:12:56 145.827
SO-50 24 Oct 14:17:06 14:21:44 84° 52° (NE) 14:26:24 436.795
VELOX 1 24 Oct 14:23:27 14:27:33 37° 292° (WNW) 14:31:37 145.980
AO-85 24 Oct 14:32:57 14:35:40 17° 328° (NNW) 14:38:28 145.980
SPROUT 24 Oct 14:40:05 14:43:01 18° 298° (WNW) 14:45:57 437.525
ITAMSAT 1 24 Oct 14:48:44 14:53:37 43° 67° (ENE) 14:58:33 435.822/435.867
nSIGHT-1 24 Oct 14:49:46 14:52:45 36° 215° (SW) 14:55:43 .
ITUPSAT 1 24 Oct 15:12:39 15:16:08 20° 92° (E) 15:19:35 437.325
DX 1 24 Oct 15:14:50 15:18:57 41° 291° (WNW) 15:23:04 434.975-435.025
Gurwin Techsat 1B 24 Oct 15:17:13 15:20:07 15° 272° (W) 15:23:01 435.225
50 SAT 24 Oct 15:24:05 15:26:19 17° 295° (WNW) 15:28:34 437.505
DOVE 4 24 Oct 15:24:15 15:25:37 11° 55° (NE) 15:27:00 437.250
BEESAT 24 Oct 15:24:36 15:28:36 26° 94° (E) 15:32:33 436.000
UKube-1 24 Oct 15:29:00 15:33:08 44° 291° (WNW) 15:37:15 .
ISS 24 Oct 15:34:58 15:37:21 19° 222° (SW) 15:39:45 437.550
MOZHAYETS 4 24 Oct 15:36:00 15:40:16 37° 97° (E) 15:44:29
PCSat 24 Oct 15:49:02 15:54:22 53° 51° (NE) 15:59:39 145.827
AO-7 24 Oct 15:52:01 16:00:05 54° 258° (WSW) 16:08:13 .
SO-50 24 Oct 15:59:04 16:01:35 15° 250° (WSW) 16:04:07 436.795
CUBESAT XI-V 24 Oct 16:00:25 16:03:22 17° 90° (E) 16:06:19 437.345
ITAMSAT 1 24 Oct 16:28:45 16:33:13 29° 265° (W) 16:37:44 435.822/435.867
HO-68 24 Oct 16:42:13 16:46:18 16° 46° (NE) 16:50:23 435.675
XW-2C 24 Oct 16:47:26 16:49:42 15° 63° (ENE) 16:51:59 145.795 - 145.815
ITUPSAT 1 24 Oct 16:49:35 16:54:17 55° 290° (WNW) 16:58:56 437.325
DOVE 4 24 Oct 16:58:12 17:02:28 84° 76° (ENE) 17:07:01 437.250
BEESAT 24 Oct 17:02:00 17:06:31 42° 292° (WNW) 17:10:59 436.000
MOZHAYETS 4 24 Oct 17:13:26 17:17:16 27° 295° (WNW) 17:21:05
KAITUO 1B 24 Oct 17:17:06 17:20:03 23° 67° (ENE) 17:23:01 145.475/437.950
BEESAT 3 24 Oct 17:17:59 17:18:50 11° 23° (NNE) 17:19:41 437.485
NUDT-PHONESAT 24 Oct 17:23:06 17:26:11 25° 67° (ENE) 17:29:16 437.300
XW-2F 24 Oct 17:26:35 17:30:02 36° 70° (ENE) 17:33:30 145.980 - 146.000
CUTE-I 24 Oct 17:31:08 17:36:11 46° 68° (ENE) 17:41:17 437.470
PCSat 24 Oct 17:32:55 17:37:29 28° 250° (WSW) 17:42:01 145.827
CUBESAT XI-V 24 Oct 17:36:36 17:41:09 60° 288° (WNW) 17:45:41 437.345
LilacSat-2 24 Oct 17:41:42 17:45:27 62° 74° (ENE) 17:49:14 437.200
XW-2D 24 Oct 17:42:32 17:46:17 61° 74° (ENE) 17:50:01 145.860 - 145.880
SEEDS 24 Oct 17:45:07 17:46:15 11° 58° (ENE) 17:47:23 437.485
CUTE 1.7 + AOD 2 24 Oct 17:45:31 17:48:17 17° 62° (ENE) 17:51:03 437.475
XW-2B 24 Oct 17:56:07 17:59:55 85° 75° (ENE) 18:03:42 145.730 - 145.750
CUBEBUG 2 24 Oct 17:59:02 18:02:08 18° 60° (ENE) 18:05:14 437.445
AO-85 24 Oct 18:00:07 18:00:25 10° 19° (NNE) 18:00:42 145.980
KKS-1 24 Oct 18:05:19 18:09:50 79° 103° (ESE) 18:14:19 437.445
XW-2C 24 Oct 18:19:50 18:23:31 49° 260° (W) 18:27:13 145.795 - 145.815
STARS 24 Oct 18:24:28 18:28:50 52° 100° (E) 18:33:10 437.465
HO-68 24 Oct 18:25:39 18:32:42 64° 67° (ENE) 18:39:48 435.675
UWE-3 24 Oct 18:26:49 18:30:03 19° 62° (ENE) 18:33:18 435.000/436.395/437.385
DOVE 4 24 Oct 18:39:56 18:40:55 11° 275° (W) 18:41:55 437.250
STRAND 1 24 Oct 18:47:06 18:48:22 11° 85° (E) 18:49:38 437.568
BEESAT 2 24 Oct 18:48:52 18:51:40 18° 33° (NNE) 18:54:27 435.950
KAITUO 1B 24 Oct 18:50:37 18:53:55 29° 264° (W) 18:57:12 145.475/437.950
BEESAT 3 24 Oct 18:53:42 18:57:28 39° 45° (NE) 19:01:10 437.485
NUDT-PHONESAT 24 Oct 18:56:49 18:59:58 26° 265° (W) 19:03:09 437.300
XW-2F 24 Oct 19:01:33 19:04:17 19° 267° (W) 19:07:00 145.980 - 146.000
AO-73 24 Oct 19:04:17 19:07:41 21° 63° (ENE) 19:11:04 145.935
CUTE-I 24 Oct 19:11:55 19:16:26 28° 266° (W) 19:20:58 437.470
YUBILEINY 24 Oct 19:12:49 19:21:00 40° 68° (ENE) 19:29:09 435.215
XW-2A 24 Oct 19:14:27 19:17:44 46° 72° (ENE) 19:21:01 145.665 - 145.685
SEEDS 24 Oct 19:17:06 19:21:16 89° 63° (ENE) 19:25:27 437.485
LilacSat-2 24 Oct 19:18:46 19:20:08 12° 271° (W) 19:21:29 437.200
XW-2D 24 Oct 19:19:27 19:20:50 12° 271° (W) 19:22:14 145.860 - 145.880
CUTE 1.7 + AOD 2 24 Oct 19:19:35 19:23:44 54° 260° (W) 19:27:52 437.475
AAUSAT CUBESAT 2 24 Oct 19:26:20 19:30:18 50° 72° (ENE) 19:34:18 437.432
ZACube-1 24 Oct 19:28:22 19:32:35 38° 69° (ENE) 19:36:48 437.345
CUBEBUG 2 24 Oct 19:33:29 19:38:12 69° 259° (WSW) 19:42:59 437.445
AO-85 24 Oct 19:38:12 19:42:10 31° 41° (NE) 19:46:22 145.980
KKS-1 24 Oct 19:43:23 19:45:47 14° 302° (WNW) 19:48:11 437.445
Oscar 11 24 Oct 19:56:35 20:00:40 43° 70° (ENE) 20:04:47 .
O/OREOS (USA 219) 24 Oct 19:58:31 20:03:01 61° 111° (ESE) 20:07:34 437.305
UWE-3 24 Oct 20:01:26 20:06:03 61° 259° (W) 20:10:42 435.000/436.395/437.385
STARS 24 Oct 20:01:37 20:04:49 20° 299° (WNW) 20:08:00 437.465
DELFI C3 24 Oct 20:10:56 20:13:03 14° 61° (ENE) 20:15:11 145.870
HO-68 24 Oct 20:14:49 20:20:54 29° 267° (W) 20:27:01 435.675
STRAND 1 24 Oct 20:23:12 20:28:24 78° 104° (ESE) 20:33:33 437.568
BEESAT 2 24 Oct 20:25:53 20:29:58 87° 232° (SW) 20:33:58 435.950
BEESAT 3 24 Oct 20:31:34 20:34:51 25° 244° (WSW) 20:38:05 437.485
AO-73 24 Oct 20:39:09 20:43:35 50° 260° (W) 20:48:01 145.935
FO-29 24 Oct 20:48:44 20:55:11 36° 95° (E) 21:02:05 435.910
XW-2A 24 Oct 20:49:16 20:50:42 12° 270° (W) 20:52:07 145.665 - 145.685
AAUSAT CUBESAT 2 24 Oct 21:03:29 21:06:03 16° 270° (W) 21:08:39 437.432
ZACube-1 24 Oct 21:05:04 21:08:56 26° 266° (W) 21:12:48 437.345
YUBILEINY 24 Oct 21:09:38 21:18:05 54° 270° (W) 21:26:34 435.215
EO-88 24 Oct 21:14:39 21:17:57 33° 69° (ENE) 21:21:15 145.990 - 145.960
UNISAT 6 24 Oct 21:15:10 21:15:54 10° 85° (E) 21:16:38 437.425
AO-85 24 Oct 21:18:22 21:22:44 47° 239° (WSW) 21:27:25 145.980
TIGRISAT 24 Oct 21:27:18 21:29:27 13° 87° (E) 21:31:33 435.000
Oscar 11 24 Oct 21:33:45 21:37:00 21° 268° (W) 21:40:17 .
Max Valier Satellite 24 Oct 21:35:25 21:39:09 81° 76° (ENE) 21:42:53 145.860
O/OREOS (USA 219) 24 Oct 21:39:24 21:42:50 20° 311° (NW) 21:46:18 437.305
DELFI C3 24 Oct 21:43:30 21:47:21 59° 259° (W) 21:51:14 145.870
LO-87 24 Oct 21:49:53 21:51:37 13° 62° (ENE) 21:53:22 145.935 - 145.965
STRAND 1 24 Oct 22:03:37 22:06:59 18° 303° (WNW) 22:10:19 437.568
BEESAT 2 24 Oct 22:06:39 22:06:58 10° 252° (WSW) 22:07:18 435.950
PRISM 24 Oct 22:22:31 22:25:36 20° 93° (E) 22:28:41 437.425
FO-29 24 Oct 22:33:36 22:40:23 56° 292° (WNW) 22:47:49 435.910
RS-15 24 Oct 22:38:39 22:48:06 27° 101° (E) 22:57:31 29.354- 29.394
ESTCUBE 1 24 Oct 22:43:17 22:47:28 40° 69° (ENE) 22:51:39 437.505/2401.250
UNISAT 6 24 Oct 22:48:43 22:53:21 88° 108° (ESE) 22:57:49 437.425
EO-88 24 Oct 22:48:59 22:51:41 19° 267° (W) 22:54:22 145.990 - 145.960
TIGRISAT 24 Oct 23:02:06 23:06:43 76° 286° (WNW) 23:11:11 435.000
YUBILEINY 24 Oct 23:11:10 23:12:43 11° 293° (WNW) 23:14:16 435.215
LO-87 24 Oct 23:21:02 23:24:35 56° 260° (W) 23:28:11 145.935 - 145.965
VELOX 1 24 Oct 23:47:15 23:51:11 33° 67° (ENE) 23:55:09 145.980
PRISM 24 Oct 23:57:08 00:01:03 42° 290° (WNW) 00:04:57 437.425
SPROUT 24 Oct 23:59:05 00:03:18 60° 73° (ENE) 00:07:35 437.525
AIST 2D 25 Oct 00:05:59 00:09:29 79° 104° (ESE) 00:12:56 435.315
EO-79 25 Oct 00:19:01 00:23:00 37° 97° (E) 00:26:56 145.935-145.965
ESTCUBE 1 25 Oct 00:20:46 00:24:24 24° 266° (W) 00:28:03 437.505/2401.250
FO-29 25 Oct 00:20:53 00:24:10 14° 311° (NW) 00:27:34 435.910
50 SAT 25 Oct 00:23:00 00:25:20 18° 66° (ENE) 00:27:39 437.505
POLYITAN 1 25 Oct 00:25:10 00:29:15 42° 98° (E) 00:33:17 437.675
UNISAT 6 25 Oct 00:27:10 00:29:20 13° 303° (WNW) 00:31:28 437.425
DX 1 25 Oct 00:37:26 00:41:10 29° 66° (ENE) 00:44:57 434.975-435.025
BUGSAT 1 25 Oct 00:40:17 00:42:26 14° 89° (E) 00:44:34 437.445
TIGRISAT 25 Oct 00:41:20 00:42:33 11° 305° (NW) 00:43:45 435.000
NANOSAT C BR1 25 Oct 00:43:38 00:47:52 60° 101° (E) 00:52:02 145.865
NO-84 25 Oct 00:45:00 00:47:07 13° 125° (SE) 00:49:15 435.350 FM
QB50P2 25 Oct 00:45:45 00:50:02 78° 101° (ESE) 00:54:17 145.880/145.840
RS-15 25 Oct 00:46:35 00:58:57 86° 124° (SE) 01:11:15 29.354- 29.394
UKube-1 25 Oct 00:50:50 00:54:24 26° 65° (ENE) 00:58:01 .
DUCHIFAT 1 25 Oct 00:51:26 00:55:39 64° 101° (E) 00:59:50 145.980
VELOX 1 25 Oct 01:23:54 01:27:39 28° 265° (W) 01:31:27 145.980
SPROUT 25 Oct 01:37:07 01:39:35 15° 270° (W) 01:42:06 437.525
Gurwin Techsat 1B 25 Oct 01:47:37 01:52:03 26° 93° (E) 01:56:26 435.225
50 SAT 25 Oct 01:54:33 01:57:26 28° 263° (W) 02:00:20 437.505
EO-79 25 Oct 01:55:07 01:58:35 24° 295° (WNW) 02:02:00 145.935-145.965
POLYITAN 1 25 Oct 02:01:31 02:04:46 22° 297° (WNW) 02:07:59 437.675
DX 1 25 Oct 02:13:27 02:17:18 31° 264° (W) 02:21:12 434.975-435.025
BUGSAT 1 25 Oct 02:14:02 02:18:13 64° 287° (WNW) 02:22:20 437.445
Oscar 19 25 Oct 02:14:04 02:19:09 59° 101° (E) 02:24:12 437.125/150
NO-84 25 Oct 02:19:38 02:23:54 69° 142° (SE) 02:28:09 435.350 FM
NANOSAT C BR1 25 Oct 02:20:28 02:23:07 16° 299° (WNW) 02:25:45 145.865
ITUPSAT 1 25 Oct 02:21:57 02:26:15 33° 66° (ENE) 02:30:34 437.325
QB50P2 25 Oct 02:23:12 02:25:13 13° 301° (WNW) 02:27:14 145.880/145.840
UKube-1 25 Oct 02:26:23 02:30:19 34° 263° (W) 02:34:16 .
DUCHIFAT 1 25 Oct 02:28:19 02:30:49 15° 300° (WNW) 02:33:20 145.980
M-CUBED/EXP-1 PRIME 25 Oct 02:31:31 02:35:00 41° 105° (ESE) 02:38:45 437.505
BEESAT 25 Oct 02:33:39 02:38:08 43° 68° (ENE) 02:42:41 436.000
MOZHAYETS 4 25 Oct 02:40:28 02:44:58 52° 71° (ENE) 02:49:28
